Temperature
2 3 3 3 3 3 2 2 3 4 4 5 5 5 5 5 6 6 6 6 6 6 6 7 7 7 7 7 7 7 7 7 8 8 8 9 9 9 9 10 10 10 10 10
1 2 3 3 3 3 3 3 3 3 4 5 5 5 4 5 5 5 5 5 5 5 6 6 6 6 6 7 7 7 7 7 7 7 8 8 8 9 9 9 9 9 9 10
1 2 1 2 3 3 3 3 3 3 4 4 4 4 4 4 5 4 5 5 5 5 5 5 5 6 6 6 6 6 7 6 6 6 7 7 8 8 8 8 9 9 9 9
1 0 0 3 3 4 4 4 4 4 4 4 4 4 5 5 5 4 4 4 4 4 4 5 5 5 5 6 6 6 6 6 6 6 6 6 7 7 8 8 8 9 9 9
0 -0 0 2 3 3 3 3 4 3 4 4 4 4 4 5 5 5 4 4 4 4 4 4 4 4 5 5 5 5 5 5 6 6 6 6 6 7 7 7 8 8 8 8
-0 -0 1 2 3 4 4 2 3 3 3 3 3 2 2 5 4 4 4 4 4 4 4 4 4 4 4 4 5 5 5 5 5 5 5 5 6 6 6 7 7 8 8 8
-0 0 1 2 3 4 2 2 3 4 3 3 2 3 4 4 4 4 4 4 4 3 3 3 4 4 4 4 4 4 4 5 5 5 5 5 5 6 6 6 6 7 7 8
-1 -0 1 3 2 2 2 4 4 4 4 4 4 4 4 3 3 3 3 3 3 3 3 3 3 3 3 3 3 4 4 4 4 4 4 5 5 5 5 5 6 6 7 7
0 2 2 3 3 4 5 4 4 4 4 4 3 3 3 3 3 3 3 3 3 3 3 3 3 3 3 3 3 3 3 3 4 4 4 4 4 4 5 5 5 6 6 7
-0 1 1 3 4 4 4 4 4 4 4 3 3 3 3 3 3 3 2 2 2 2 2 2 2 2 2 2 2 2 3 3 3 3 3 3 4 4 4 4 5 5 6 6
-0 1 1 2 3 4 4 4 4 3 3 3 3 3 2 2 2 2 2 2 2 1 1 2 2 2 2 2 2 2 2 2 2 2 3 3 3 3 3 4 4 5 5 5
1 1 1 1 3 3 3 3 3 3 3 3 2 2 2 2 2 1 1 1 1 1 1 1 1 1 1 1 1 1 1 1 2 2 2 2 2 3 3 3 4 4 4 5
3 3 3 3 3 3 2 2 2 2 2 2 2 1 1 1 1 1 1 1 0 0 0 1 1 1 1 1 1 1 1 1 1 1 1 1 2 2 2 3 3 4 4 4
2 2 2 2 2 2 2 2 2 1 1 1 1 1 0 0 0 0 0 -0 -0 -0 -0 -0 -0 0 0 0 -0 -0 0 0 0 0 1 1 1 1 1 2 2 3 3 4
1 1 1 1 1 1 1 1 1 0 0 0 0 -0 -0 -0 -0 -1 -1 -1 -1 -1 -1 -1 -1 -0 -0 -1 -1 -1 -1 -0 -0 -0 0 0 0 1 1 1 1 2 2 3
0 0 0 0 -0 -0 -0 -0 -1 -1 -1 -1 -1 -1 -1 -1 -1 -1 -1 -1 -2 -1 -1 -1 -1 -1 -1 -1 -1 -1 -1 -1 -1 -1 -0 -0 -0 0 0 1 1 1 1 2
-1 -1 -1 -1 -1 -1 -1 -1 -1 -2 -2 -2 -2 -2 -2 -2 -2 -2 -2 -2 -2 -2 -2 -2 -2 -2 -2 -2 -2 -2 -2 -2 -1 -1 -1 -1 -1 -0 -0 0 0 1 1 1
-1 -2 -2 -2 -2 -2 -2 -2 -2 -2 -2 -3 -3 -3 -3 -3 -3 -3 -3 -3 -3 -3 -3 -3 -3 -3 -3 -3 -3 -3 -3 -2 -2 -2 -2 -1 -1 -1 -1 -0 0 0 1 1
-2 -2 -3 -3 -3 -3 -3 -3 -3 -3 -3 -3 -3 -3 -3 -3 -4 -4 -4 -4 -4 -4 -3 -3 -3 -3 -3 -3 -3 -3 -3 -3 -3 -2 -2 -2 -2 -1 -1 -1 -0 -0 0 0
-3 -3 -3 -3 -3 -4 -4 -4 -4 -4 -4 -4 -4 -4 -4 -4 -4 -5 -5 -4 -5 -5 -4 -4 -4 -4 -4 -4 -4 -4 -4 -3 -3 -3 -2 -2 -2 -2 -1 -1 -1 -1 -0 0
-4 -4 -4 -4 -4 -4 -4 -4 -5 -5 -5 -5 -5 -5 -5 -5 -5 -5 -5 -5 -5 -5 -5 -5 -5 -5 -5 -4 -4 -4 -4 -4 -4 -3 -3 -3 -2 -2 -2 -1 -1 -1 -1 -0
-5 -5 -5 -5 -5 -5 -5 -5 -5 -5 -5 -5 -6 -6 -6 -6 -6 -6 -6 -6 -5 -6 -6 -6 -5 -5 -5 -5 -5 -5 -5 -4 -4 -4 -3 -3 -3 -2 -2 -2 -2 -1 -1 -1
-5 -5 -5 -5 -6 -6 -6 -6 -6 -6 -6 -6 -6 -6 -6 -6 -6 -6 -6 -6 -6 -6 -6 -6 -6 -6 -6 -6 -6 -5 -5 -5 -4 -4 -4 -3 -3 -3 -3 -2 -2 -2 -1 -1
-6 -6 -6 -6 -6 -6 -6 -6 -7 -7 -7 -7 -7 -7 -7 -7 -6 -7 -7 -7 -7 -7 -7 -6 -6 -6 -6 -6 -6 -6 -5 -5 -4 -4 -4 -4 -3 -3 -3 -3 -2 -2 -2 -1
-7 -7 -7 -7 -7 -7 -7 -7 -7 -7 -7 -7 -7 -7 -7 -7 -7 -7 -7 -7 -7 -7 -7 -7 -7 -6 -6 -6 -6 -6 -6 -5 -5 -5 -4 -4 -4 -3 -3 -3 -2 -2 -2 -2
-7 -7 -8 -8 -8 -8 -8 -8 -8 -8 -8 -8 -8 -8 -8 -8 -8 -8 -8 -8 -8 -8 -8 -7 -7 -7 -7 -7 -6 -6 -6 -6 -5 -5 -5 -4 -4 -4 -3 -3 -3 -2 -2 -2
-8 -8 -8 -8 -9 -9 -9 -9 -9 -9 -9 -9 -9 -9 -9 -9 -9 -9 -8 -8 -8 -8 -8 -8 -8 -7 -7 -7 -7 -7 -6 -6 -6 -5 -5 -5 -4 -4 -3 -3 -3 -2 -2 -2
Wind_Speed
12 12 9 12 14 11 12 12 12 14 17 19 14 10 9 8 8 7 7 7 6 7 7 6 6 7 7 6 4 4 4 5 6 6 6 6 6 7 8 9 11 12 11 11
10 11 12 17 19 18 17 15 17 19 22 16 11 8 8 8 7 8 8 7 6 7 7 7 7 7 7 7 5 4 5 6 6 6 5 5 6 6 7 9 10 10 11 11
8 6 6 12 15 15 11 11 11 17 17 10 8 8 8 7 7 7 7 7 6 6 7 7 7 7 7 7 6 5 5 6 6 6 6 7 6 6 6 8 9 11 10 11
4 2 11 10 5 8 11 14 14 13 11 9 9 8 7 6 6 7 6 6 6 6 6 6 6 7 8 7 6 5 5 5 6 6 6 6 6 6 6 6 8 10 10 10
4 6 10 10 7 5 7 10 9 11 10 9 6 4 5 5 5 6 6 6 6 6 6 6 7 7 8 7 6 5 5 6 6 6 6 6 6 6 6 6 7 8 9 10
6 6 8 9 5 3 1 8 6 5 7 6 2 3 6 5 5 5 6 6 5 6 6 6 7 7 7 7 6 6 7 7 7 6 6 7 7 7 6 6 7 7 8 9
10 9 9 9 5 1 3 8 4 3 5 5 5 7 6 5 5 5 6 6 5 5 5 6 6 6 6 6 6 7 7 7 6 6 6 7 6 6 6 6 6 7 8 8
7 9 11 6 4 6 8 4 3 4 5 6 7 7 6 6 6 6 6 6 5 5 6 6 5 5 6 7 7 7 7 7 6 6 6 5 5 6 5 6 6 6 6 7
11 11 7 6 8 7 5 5 5 5 6 6 7 7 7 6 7 6 6 6 5 5 6 7 5 4 6 7 7 7 7 7 7 7 6 5 5 5 5 5 5 5 4 5
8 11 9 8 8 8 7 8 8 7 7 6 7 7 8 7 7 7 6 6 5 5 6 7 7 6 6 7 7 6 7 7 7 6 6 5 4 4 4 4 4 4 4 4
11 10 8 9 10 10 9 8 7 6 6 7 7 8 8 7 7 7 6 5 5 5 6 7 7 7 6 6 6 6 7 7 7 6 6 5 5 5 5 5 5 5 4 4
12 10 8 8 8 8 9 9 9 9 8 7 7 8 8 7 7 7 7 6 5 6 7 7 7 7 6 6 5 5 6 6 6 5 5 5 5 6 7 6 7 6 6 6
14 11 10 10 8 8 9 9 8 8 8 8 7 7 7 7 7 6 6 6 6 7 7 7 7 7 7 5 5 5 6 6 6 5 5 5 5 5 6 6 5 5 4 4
11 9 9 9 8 7 7 7 6 6 6 6 6 6 6 6 6 6 6 6 6 6 6 6 6 7 6 6 6 6 6 7 6 5 5 5 5 5 5 5 5 4 3 3
9 8 8 6 5 5 5 4 4 4 4 4 4 4 5 5 6 6 6 5 5 5 6 6 6 7 7 6 6 6 6 5 5 5 5 5 5 5 4 4 4 3 3 2
5 5 5 5 6 5 5 4 5 6 5 5 5 5 5 5 6 6 5 4 4 6 6 6 7 7 7 6 6 6 6 9 8 6 5 5 5 5 4 4 3 3 3 3
5 5 5 5 5 5 5 5 5 5 5 5 5 5 5 4 5 5 5 5 5 6 6 6 7 7 7 6 6 5 5 7 9 7 5 5 5 5 4 4 3 3 3 3
4 5 4 4 5 5 4 4 4 4 4 5 5 4 4 4 6 6 6 5 5 6 6 6 6 6 6 6 6 5 5 6 5 6 6 5 5 4 4 4 4 4 3 3
1 1 2 2 2 2 3 3 3 3 3 3 4 4 4 5 5 6 5 5 6 7 7 6 10 8 7 8 8 5 5 6 6 6 5 7 6 5 4 4 4 4 3 3
1 1 1 2 2 2 2 3 2 3 3 3 4 4 5 5 5 5 5 5 5 5 7 8 8 7 7 7 9 5 6 6 6 6 6 5 5 5 4 4 4 4 3 3
2 2 2 3 3 3 3 3 2 3 4 4 4 4 5 6 5 5 5 6 6 6 7 10 7 6 6 8 9 6 6 6 6 5 5 5 5 4 4 4 3 3 3 3
2 2 3 3 3 3 4 3 3 3 4 4 4 4 5 6 5 5 5 5 6 10 7 6 6 8 10 10 5 5 6 6 5 5 5 5 4 4 4 4 3 3 3 3
2 3 3 3 3 3 4 3 3 3 4 4 5 5 5 5 5 5 6 5 5 9 8 6 9 13 13 7 5 5 6 6 5 5 5 4 4 4 4 4 3 3 3 3
3 3 3 3 2 3 4 4 4 4 4 4 4 4 4 5 5 4 5 8 10 11 6 9 13 13 12 6 5 5 5 5 5 4 4 4 4 4 4 3 3 3 3 3
3 3 3 3 3 3 4 4 4 4 4 4 4 4 4 4 4 5 5 6 9 10 6 9 12 12 8 5 5 5 5 5 5 4 4 4 4 3 3 3 3 3 3 3
3 3 3 3 3 3 3 3 3 3 4 4 4 4 4 4 4 5 5 5 7 9 7 6 7 8 5 5 5 6 5 5 5 4 4 3 3 3 3 3 3 3 3 3
3 3 3 3 3 3 3 3 3 4 4 4 5 5 4 4 4 5 5 5 5 5 5 5 5 5 5 5 5 5 5 4 4 4 3 3 3 3 3 3 2 2 2 2
Wind_Direction
255 263 257 257 262 250 236 234 243 259 263 272 281 282 284 288 297 307 313 313 311 314 315 317 320 320 319 310 309 309 301 288 275 271 271 267 258 243 235 229 221 213 212 214
269 262 258 265 261 254 249 245 248 260 267 268 272 275 280 288 295 300 302 304 307 313 317 318 317 317 316 312 305 306 298 289 288 291 287 278 268 257 239 231 223 215 215 215
267 274 291 264 249 243 236 228 231 249 259 273 276 270 269 274 280 283 291 297 302 304 307 308 311 312 310 303 301 295 291 292 293 289 288 281 280 272 255 243 227 218 217 216
262 268 249 250 237 235 243 250 243 246 255 261 260 260 259 255 257 273 284 291 295 297 299 301 305 311 309 306 303 296 295 297 298 291 285 284 277 270 266 263 238 222 217 218
222 244 269 281 262 222 229 259 246 242 256 265 271 290 284 264 249 255 268 276 280 283 288 295 305 312 314 314 312 307 300 297 295 288 284 284 281 278 272 267 256 232 220 217
215 234 252 256 255 251 250 272 257 222 246 267 289 290 280 273 266 272 278 282 282 289 297 299 302 312 314 310 310 306 301 296 294 290 286 283 279 279 277 264 259 243 229 222
225 239 259 257 255 152 217 251 252 214 235 248 230 238 261 275 275 271 274 281 285 289 292 289 297 313 312 307 304 301 302 301 300 297 292 287 283 276 277 271 260 244 229 224
204 226 248 233 172 200 228 243 243 248 251 248 248 259 265 271 277 283 287 288 290 292 293 295 296 304 307 304 301 304 306 304 301 299 299 300 290 282 278 270 258 244 229 224
202 222 238 203 211 231 223 234 244 247 260 257 258 263 267 268 270 274 277 278 279 282 293 301 300 294 295 298 306 311 310 306 300 300 300 297 290 284 281 267 256 247 230 226
234 249 248 244 249 254 242 240 247 247 253 253 253 261 269 274 276 277 278 277 280 285 289 298 300 295 283 294 305 308 308 307 304 300 300 301 296 286 281 271 259 248 235 231
241 254 266 256 246 248 249 252 254 251 247 243 248 260 262 267 271 273 274 276 277 277 280 285 294 294 294 298 305 301 301 303 304 300 292 296 294 285 279 270 259 250 242 229
242 235 233 247 239 237 246 253 255 258 262 256 246 254 259 262 265 266 270 272 274 276 280 286 292 291 296 300 301 301 303 305 302 300 297 295 298 303 291 279 282 270 260 248
244 250 245 254 255 249 248 253 252 252 254 257 257 254 259 265 268 266 269 271 273 277 280 286 291 292 297 303 302 296 293 297 300 300 299 299 299 299 307 313 299 282 274 257
241 244 251 251 253 256 253 255 260 261 257 254 258 264 267 269 273 272 272 275 279 282 283 284 287 290 295 299 297 293 292 293 296 295 296 296 292 290 289 291 300 305 292 273
244 232 237 247 255 262 264 267 270 271 274 274 266 266 270 272 273 274 277 282 289 291 290 290 289 293 299 298 294 291 293 294 293 291 290 290 288 286 283 281 277 286 299 293
244 240 237 243 251 262 266 261 259 268 273 274 274 273 272 271 275 282 285 288 292 293 294 295 293 296 302 300 297 296 293 295 298 296 292 291 287 281 277 276 268 263 271 274
231 245 246 251 254 261 261 259 256 264 272 276 278 281 283 284 289 290 291 290 283 282 286 290 293 300 305 301 297 295 295 297 298 297 288 283 278 271 269 265 258 256 260 263
226 239 243 241 250 259 268 272 272 271 272 277 286 288 288 287 288 292 295 299 300 298 293 292 295 302 303 301 298 292 291 291 290 287 286 284 278 270 267 261 258 257 263 265
254 260 273 274 268 264 273 279 285 288 294 301 296 289 285 285 287 292 299 299 298 300 302 305 313 314 304 301 303 293 292 292 292 289 284 285 284 274 263 256 256 252 250 254
3 359 350 332 324 306 297 298 305 309 309 308 304 303 301 299 296 298 299 293 285 284 295 305 307 302 299 298 301 290 286 286 287 288 284 278 276 274 265 256 250 247 244 243
343 341 338 329 325 324 312 307 308 308 311 309 300 296 296 300 301 300 299 299 300 302 306 308 308 301 300 300 299 291 288 288 287 287 285 281 277 274 268 261 253 247 244 240
326 325 322 321 323 322 322 319 306 302 308 311 306 300 300 302 304 301 287 280 296 309 313 304 302 304 309 307 299 295 292 291 288 287 284 277 272 270 268 263 254 246 242 237
310 308 309 309 307 309 318 318 308 303 300 299 297 295 292 292 293 294 299 299 303 311 315 305 309 313 316 317 305 296 292 290 288 285 282 277 271 267 264 262 256 245 239 236
313 313 309 309 312 315 314 313 311 310 306 300 298 296 293 296 296 284 282 302 313 313 312 309 315 317 320 318 307 301 296 292 287 284 281 279 272 269 266 260 256 247 238 231
310 307 307 311 308 298 295 304 311 312 312 308 302 299 296 287 287 297 301 304 311 317 315 315 318 319 320 311 307 303 300 294 289 283 276 277 276 270 266 261 255 246 237 225
307 302 294 287 283 286 291 297 302 304 307 307 306 302 302 302 297 297 300 304 306 313 314 310 311 312 310 306 303 302 301 300 299 293 285 280 278 275 268 263 260 250 237 220
305 302 302 305 304 300 296 295 295 296 298 298 302 304 306 308 306 306 304 307 309 310 309 310 309 308 307 305 304 303 303 302 299 294 287 281 276 271 267 263 260 247 229 203
Height
1448 1444 1444 1441 1437 1436 1437 1433 1431 1419 1413 1404 1401 1400 1397 1395 1392 1390 1388 1386 1384 1381 1379 1376 1375 1372 1369 1368 1367 1366 1365 1364 1364 1364 1364 1364 1365 1366 1367 1369 1371 1375 1377 1379
1445 1439 1438 1434 1427 1425 1424 1422 1419 1414 1406 1398 1398 1396 1394 1392 1390 1387 1385 1383 1381 1379 1376 1374 1372 1369 1367 1365 1363 1362 1361 1361 1360 1359 1359 1359 1360 1360 1362 1363 1365 1368 1370 1372
1442 1438 1437 1429 1415 1413 1412 1409 1409 1406 1398 1394 1394 1393 1391 1389 1387 1385 1382 1380 1378 1376 1374 1372 1370 1367 1364 1362 1361 1359 1358 1357 1356 1355 1354 1354 1354 1354 1355 1357 1358 1360 1362 1365
1441 1441 1438 1413 1405 1404 1403 1400 1398 1395 1392 1391 1390 1388 1387 1386 1384 1382 1380 1377 1376 1374 1372 1370 1367 1365 1362 1359 1357 1356 1355 1353 1352 1351 1350 1349 1349 1348 1349 1350 1352 1353 1356 1358
1439 1438 1425 1409 1401 1400 1400 1395 1390 1390 1388 1386 1386 1385 1384 1382 1381 1379 1377 1375 1373 1371 1369 1366 1364 1362 1359 1356 1354 1353 1351 1350 1349 1347 1346 1344 1343 1343 1343 1344 1345 1347 1349 1352
1433 1432 1422 1404 1395 1393 1396 1395 1386 1385 1385 1384 1384 1387 1382 1379 1378 1376 1374 1373 1370 1368 1366 1363 1361 1358 1356 1353 1351 1350 1348 1347 1345 1344 1342 1340 1338 1338 1338 1338 1339 1340 1343 1345
1425 1423 1411 1396 1392 1393 1401 1394 1384 1382 1382 1382 1382 1381 1378 1376 1374 1373 1371 1369 1367 1365 1363 1360 1358 1355 1352 1350 1348 1347 1345 1343 1341 1339 1338 1336 1334 1334 1333 1333 1333 1334 1336 1338
1419 1417 1406 1388 1390 1391 1388 1382 1381 1380 1380 1379 1377 1375 1374 1373 1371 1370 1368 1366 1364 1361 1359 1357 1354 1352 1349 1347 1345 1343 1341 1339 1337 1335 1333 1331 1330 1329 1328 1328 1327 1328 1329 1331
1401 1394 1384 1382 1382 1380 1380 1379 1378 1377 1376 1375 1373 1372 1370 1369 1367 1365 1364 1362 1360 1358 1355 1353 1351 1349 1346 1344 1342 1339 1337 1335 1333 1331 1329 1327 1325 1324 1323 1323 1322 1322 1323 1324
1391 1383 1379 1378 1377 1376 1376 1375 1374 1373 1372 1371 1369 1367 1366 1364 1362 1361 1359 1358 1356 1354 1351 1349 1347 1346 1344 1341 1339 1336 1333 1331 1329 1327 1325 1323 1322 1321 1319 1318 1317 1318 1318 1319
1381 1376 1374 1372 1372 1371 1371 1370 1369 1368 1367 1366 1365 1363 1361 1360 1358 1356 1355 1353 1352 1350 1347 1345 1343 1342 1340 1338 1335 1332 1330 1328 1325 1324 1321 1319 1318 1317 1316 1314 1314 1313 1314 1316
1371 1368 1368 1365 1365 1366 1365 1364 1363 1362 1361 1360 1359 1358 1356 1354 1353 1351 1350 1348 1346 1345 1343 1341 1339 1337 1336 1334 1331 1328 1326 1323 1321 1319 1317 1316 1313 1312 1311 1310 1309 1310 1310 1311
1360 1360 1360 1359 1359 1359 1359 1358 1357 1356 1355 1354 1353 1352 1351 1349 1347 1346 1344 1343 1341 1339 1338 1336 1334 1332 1331 1329 1327 1324 1322 1319 1317 1315 1313 1311 1310 1308 1305 1305 1305 1305 1306 1307
1355 1355 1354 1353 1353 1353 1352 1352 1351 1350 1349 1349 1347 1346 1345 1343 1342 1340 1339 1338 1336 1334 1333 1331 1329 1328 1326 1325 1322 1320 1318 1316 1313 1311 1309 1307 1306 1304 1303 1301 1300 1299 1301 1302
1348 1349 1348 1348 1348 1347 1347 1346 1345 1344 1344 1343 1342 1341 1339 1338 1336 1335 1334 1333 1331 1329 1328 1326 1324 1322 1321 1319 1317 1315 1313 1311 1309 1307 1305 1304 1302 1301 1299 1298 1297 1296 1296 1298
1342 1343 1343 1342 1342 1342 1341 1341 1340 1339 1339 1338 1337 1335 1334 1333 1331 1330 1329 1328 1326 1324 1322 1321 1319 1317 1316 1314 1312 1310 1308 1307 1305 1303 1301 1300 1298 1297 1295 1295 1294 1293 1293 1294
1339 1338 1338 1337 1337 1336 1336 1336 1335 1335 1334 1333 1332 1331 1329 1328 1326 1325 1324 1323 1321 1319 1317 1316 1314 1312 1311 1309 1307 1305 1303 1302 1300 1299 1297 1295 1294 1293 1292 1291 1290 1290 1290 1291
1334 1334 1334 1334 1333 1332 1331 1331 1331 1330 1329 1328 1327 1326 1325 1323 1321 1320 1318 1317 1315 1314 1312 1311 1309 1307 1306 1304 1302 1300 1298 1297 1295 1294 1292 1291 1290 1289 1288 1288 1287 1287 1287 1288
1330 1330 1330 1330 1329 1329 1328 1327 1326 1326 1325 1324 1323 1322 1320 1319 1317 1316 1314 1312 1310 1308 1307 1306 1304 1302 1300 1299 1298 1296 1294 1292 1290 1289 1288 1287 1286 1285 1284 1284 1284 1284 1284 1285
1328 1328 1327 1327 1326 1325 1324 1323 1323 1322 1321 1320 1319 1318 1316 1315 1313 1311 1310 1308 1306 1304 1303 1301 1299 1297 1296 1294 1293 1291 1289 1287 1285 1284 1283 1282 1281 1281 1281 1281 1280 1281 1281 1282
1327 1326 1325 1324 1323 1322 1321 1320 1319 1318 1318 1317 1315 1314 1312 1311 1309 1307 1305 1303 1302 1301 1299 1297 1295 1293 1291 1289 1288 1286 1284 1282 1281 1280 1279 1278 1277 1277 1277 1277 1277 1277 1278 1278
1325 1324 1323 1322 1321 1319 1318 1317 1316 1315 1314 1313 1312 1310 1308 1307 1305 1303 1302 1300 1298 1296 1294 1292 1290 1288 1287 1285 1283 1281 1279 1278 1277 1276 1275 1274 1274 1273 1273 1274 1274 1274 1275 1276
1323 1322 1321 1319 1318 1317 1315 1315 1313 1312 1311 1309 1308 1307 1305 1303 1301 1300 1297 1296 1294 1292 1290 1288 1286 1284 1283 1280 1278 1276 1275 1274 1272 1271 1271 1270 1270 1270 1270 1271 1271 1272 1272 1273
1321 1319 1318 1317 1316 1314 1313 1311 1310 1309 1308 1306 1305 1304 1302 1300 1298 1296 1294 1292 1290 1288 1286 1284 1282 1280 1278 1276 1274 1272 1271 1270 1268 1268 1267 1267 1267 1267 1267 1268 1268 1269 1269 1270
1318 1317 1316 1314 1313 1311 1310 1308 1307 1306 1304 1303 1302 1300 1299 1297 1295 1292 1290 1288 1286 1284 1282 1280 1278 1276 1274 1272 1270 1269 1267 1266 1265 1265 1264 1264 1264 1264 1265 1265 1266 1266 1267 1268
1315 1314 1313 1311 1310 1309 1307 1306 1304 1302 1301 1299 1298 1297 1295 1293 1291 1289 1287 1284 1282 1280 1278 1276 1274 1272 1270 1269 1267 1266 1264 1263 1263 1262 1261 1261 1261 1262 1262 1263 1263 1264 1264 1265
1312 1311 1310 1308 1307 1306 1304 1303 1301 1300 1298 1297 1295 1293 1291 1289 1287 1285 1283 1281 1279 1277 1274 1272 1271 1269 1267 1266 1264 1263 1262 1261 1260 1259 1259 1259 1259 1259 1259 1260 1261 1262 1262 1263